CEB638 RPVP-RPLL

Flight info

Callsign CEB638
Flight time 1h 18m
Altitude 35000
Route DABOY1E DABOY W281 LEGED N884 LUBAN LUBAN5R
Aircraft A21N/M-SDE3FGHIRWY/LB1

Departure

Time 2026-04-20 11:51
Airport Puerto Princesa International Airport / PAF Antonio Bautista Air Base (RPVP)

Arrival

Time 2026-04-20 13:10
Airport Ninoy Aquino International Airport (RPLL)
Time Latitude Longitude Altitude Speed Heading
2026-04-20 11:45 9.74411 118.75086 77 ft 0 kts 272°
2026-04-20 11:46 9.74411 118.75082 77 ft 2 kts 272°
2026-04-20 11:46 9.74412 118.75053 77 ft 6 kts 272°
2026-04-20 11:46 9.74414 118.75001 77 ft 7 kts 272°
2026-04-20 11:46 9.74417 118.74945 77 ft 8 kts 272°
2026-04-20 11:47 9.74419 118.74887 77 ft 8 kts 272°
2026-04-20 11:47 9.74420 118.74865 77 ft 8 kts 272°
2026-04-20 11:47 9.74420 118.74858 77 ft 8 kts 272°
2026-04-20 11:47 9.74424 118.74796 77 ft 9 kts 273°
2026-04-20 11:48 9.74419 118.74731 77 ft 7 kts 251°
2026-04-20 11:48 9.74380 118.74707 77 ft 6 kts 183°
2026-04-20 11:48 9.74356 118.74706 77 ft 0 kts 182°
2026-04-20 11:49 9.74355 118.74706 77 ft 0 kts 182°
2026-04-20 11:49 9.74349 118.74706 77 ft 1 kts 182°
2026-04-20 11:49 9.74327 118.74706 77 ft 4 kts 181°
2026-04-20 11:49 9.74294 118.74705 77 ft 4 kts 179°
2026-04-20 11:50 9.74265 118.74719 77 ft 4 kts 124°
2026-04-20 11:50 9.74257 118.74753 77 ft 5 kts 96°
2026-04-20 11:50 9.74255 118.74791 77 ft 5 kts 92°
2026-04-20 11:50 9.74249 118.74953 77 ft 55 kts 93°
2026-04-20 11:51 9.74222 118.75587 77 ft 122 kts 91°
2026-04-20 11:51 9.74177 118.76643 136 ft 169 kts 91°
2026-04-20 11:51 9.74118 118.77848 659 ft 176 kts 92°
2026-04-20 11:51 9.74067 118.79092 1330 ft 178 kts 82°
2026-04-20 11:52 9.74600 118.80151 1903 ft 174 kts 36°
2026-04-20 11:52 9.75467 118.80508 2104 ft 181 kts 10°
2026-04-20 11:52 9.76382 118.80639 2290 ft 190 kts
2026-04-20 11:53 9.76538 118.80660 2320 ft 191 kts
2026-04-20 11:53 9.77820 118.80846 2565 ft 204 kts
2026-04-20 11:53 9.79260 118.81100 2827 ft 218 kts 11°
2026-04-20 11:53 9.80825 118.81413 3047 ft 236 kts 11°
2026-04-20 11:54 9.82499 118.81576 3346 ft 252 kts
2026-04-20 11:54 9.84292 118.81564 3785 ft 263 kts 359°
2026-04-20 11:54 9.86127 118.81529 4440 ft 265 kts 359°
2026-04-20 11:54 9.87978 118.81506 5107 ft 267 kts 359°
2026-04-20 11:55 9.89840 118.81496 5753 ft 270 kts 359°
2026-04-20 11:55 9.91716 118.81493 6393 ft 273 kts 359°
2026-04-20 11:55 9.93608 118.81495 7026 ft 276 kts 359°
2026-04-20 11:55 9.95539 118.81500 7657 ft 279 kts 358°
2026-04-20 11:56 9.97425 118.81506 8248 ft 283 kts 358°
2026-04-20 11:56 9.99361 118.81514 8833 ft 286 kts 358°
2026-04-20 11:56 10.00624 118.81520 9204 ft 288 kts 358°
2026-04-20 11:56 10.02242 118.81527 9667 ft 292 kts 358°
2026-04-20 11:57 10.04285 118.81537 10227 ft 296 kts 358°
2026-04-20 11:57 10.06379 118.81546 10543 ft 309 kts 358°
2026-04-20 11:57 10.08572 118.81554 10804 ft 323 kts 358°
2026-04-20 11:57 10.10889 118.81565 11103 ft 336 kts 358°
2026-04-20 11:58 10.13134 118.81578 11574 ft 341 kts 358°
2026-04-20 11:58 10.15535 118.81594 12135 ft 344 kts 359°
2026-04-20 11:58 10.18006 118.81609 12684 ft 348 kts 359°
2026-04-20 11:58 10.20444 118.81625 13217 ft 351 kts 359°
2026-04-20 11:59 10.22900 118.81638 13746 ft 354 kts 359°
2026-04-20 11:59 10.25394 118.81653 14269 ft 358 kts 359°
2026-04-20 11:59 10.27815 118.81667 14766 ft 361 kts 359°
2026-04-20 11:59 10.30415 118.81681 15288 ft 364 kts 359°
2026-04-20 12:00 10.32945 118.81695 15785 ft 367 kts 359°
2026-04-20 12:00 10.35431 118.81709 16262 ft 370 kts 359°
2026-04-20 12:00 10.37938 118.81722 16733 ft 373 kts 359°
2026-04-20 12:00 10.40588 118.81749 17219 ft 376 kts
2026-04-20 12:01 10.43191 118.81886 17688 ft 379 kts
2026-04-20 12:01 10.45820 118.82071 18156 ft 381 kts
2026-04-20 12:01 10.48417 118.82259 18606 ft 384 kts
2026-04-20 12:01 10.51089 118.82453 19057 ft 386 kts
2026-04-20 12:02 10.53745 118.82643 19494 ft 389 kts
2026-04-20 12:02 10.56445 118.82835 19928 ft 391 kts
2026-04-20 12:02 10.59180 118.83028 20357 ft 393 kts
2026-04-20 12:02 10.61864 118.83217 20768 ft 396 kts
2026-04-20 12:03 10.64605 118.83410 21179 ft 398 kts
2026-04-20 12:03 10.67390 118.83605 21583 ft 400 kts
2026-04-20 12:03 10.70102 118.83796 21969 ft 402 kts
2026-04-20 12:03 10.72930 118.83994 22361 ft 404 kts
2026-04-20 12:04 10.75571 118.84180 22718 ft 406 kts
2026-04-20 12:04 10.78443 118.84382 23097 ft 408 kts
2026-04-20 12:04 10.81236 118.84578 23457 ft 410 kts
2026-04-20 12:04 10.84138 118.84782 23822 ft 412 kts
2026-04-20 12:05 10.86983 118.84982 24173 ft 414 kts
2026-04-20 12:05 10.89863 118.85184 24522 ft 415 kts
2026-04-20 12:05 10.92645 118.85388 24979 ft 412 kts
2026-04-20 12:06 10.97837 118.85753 25966 ft 405 kts
2026-04-20 12:06 11.00654 118.85947 26225 ft 408 kts
2026-04-20 12:06 11.01596 118.86013 26303 ft 409 kts
2026-04-20 12:07 11.08964 118.86526 26916 ft 416 kts
2026-04-20 12:07 11.11878 118.86731 27197 ft 418 kts
2026-04-20 12:07 11.14758 118.86935 27474 ft 419 kts
2026-04-20 12:07 11.17610 118.87138 27743 ft 421 kts
2026-04-20 12:08 11.20568 118.87347 28016 ft 422 kts
2026-04-20 12:08 11.23447 118.87551 28277 ft 423 kts
2026-04-20 12:08 11.26467 118.87765 28549 ft 425 kts
2026-04-20 12:08 11.29265 118.87962 28797 ft 426 kts
2026-04-20 12:09 11.32270 118.88174 29052 ft 428 kts
2026-04-20 12:09 11.35274 118.88386 29302 ft 429 kts
2026-04-20 12:09 11.38233 118.88594 29546 ft 430 kts
2026-04-20 12:09 11.41213 118.88805 29789 ft 432 kts
2026-04-20 12:10 11.44208 118.89016 30032 ft 433 kts
2026-04-20 12:10 11.47232 118.89230 30266 ft 434 kts
2026-04-20 12:10 11.50238 118.89441 30491 ft 436 kts
2026-04-20 12:10 11.53270 118.89655 30717 ft 437 kts
2026-04-20 12:11 11.56358 118.89874 30940 ft 438 kts
2026-04-20 12:11 11.59389 118.90087 31152 ft 439 kts
2026-04-20 12:11 11.62441 118.90303 31380 ft 440 kts
2026-04-20 12:11 11.65422 118.90514 31667 ft 439 kts
2026-04-20 12:12 11.68440 118.90726 31979 ft 438 kts
2026-04-20 12:12 11.71396 118.90936 32266 ft 437 kts
2026-04-20 12:12 11.74463 118.91152 32555 ft 436 kts
2026-04-20 12:13 11.80587 118.91585 33105 ft 434 kts
2026-04-20 12:13 11.83593 118.91798 33348 ft 434 kts
2026-04-20 12:13 11.86489 118.92002 33544 ft 434 kts
2026-04-20 12:13 11.89602 118.92223 33741 ft 435 kts
2026-04-20 12:14 11.92674 118.92440 33948 ft 436 kts
2026-04-20 12:14 11.95701 118.92654 34147 ft 436 kts
2026-04-20 12:14 11.98781 118.92873 34333 ft 437 kts
2026-04-20 12:14 12.01817 118.93088 34509 ft 437 kts
2026-04-20 12:15 12.04894 118.93306 34690 ft 438 kts
2026-04-20 12:15 12.07963 118.93523 34870 ft 438 kts
2026-04-20 12:15 12.14072 118.93956 34942 ft 440 kts
2026-04-20 12:16 12.20177 118.94389 34944 ft 439 kts
2026-04-20 12:16 12.26314 118.94824 34945 ft 439 kts
2026-04-20 12:17 12.32303 118.95249 34945 ft 439 kts
2026-04-20 12:17 12.35348 118.95466 34945 ft 439 kts
2026-04-20 12:18 12.36372 118.95538 34945 ft 439 kts
2026-04-20 12:19 12.63017 118.97430 34945 ft 439 kts
2026-04-20 12:20 12.69089 118.97862 34945 ft 439 kts
2026-04-20 12:20 12.75224 118.98299 34945 ft 438 kts
2026-04-20 12:21 12.81315 118.98731 34943 ft 439 kts
2026-04-20 12:21 12.87375 118.99161 34942 ft 439 kts
2026-04-20 12:22 12.93460 118.99665 34939 ft 439 kts
2026-04-20 12:22 12.99326 119.01372 34940 ft 441 kts 22°
2026-04-20 12:23 13.04537 119.04565 34939 ft 441 kts 38°
2026-04-20 12:23 13.08798 119.09058 34941 ft 443 kts 51°
2026-04-20 12:24 13.12496 119.13943 34941 ft 445 kts 52°
2026-04-20 12:24 13.16291 119.18999 34941 ft 446 kts 52°
2026-04-20 12:25 13.20107 119.24058 34941 ft 446 kts 52°
2026-04-20 12:25 13.23915 119.29095 34941 ft 446 kts 52°
2026-04-20 12:26 13.27722 119.34130 34941 ft 446 kts 52°
2026-04-20 12:26 13.31548 119.39191 34941 ft 446 kts 52°
2026-04-20 12:27 13.35370 119.44248 34942 ft 446 kts 52°
2026-04-20 12:27 13.39194 119.49312 34942 ft 446 kts 52°
2026-04-20 12:28 13.42994 119.54346 34942 ft 446 kts 52°
2026-04-20 12:28 13.46820 119.59418 34852 ft 445 kts 52°
2026-04-20 12:29 13.48728 119.61948 34279 ft 448 kts 52°
2026-04-20 12:29 13.50665 119.64517 33355 ft 454 kts 52°
2026-04-20 12:29 13.52409 119.66833 32491 ft 460 kts 52°
2026-04-20 12:29 13.54505 119.69617 31531 ft 463 kts 52°
2026-04-20 12:30 13.56496 119.72261 30709 ft 464 kts 52°
2026-04-20 12:30 13.58383 119.74768 30168 ft 459 kts 52°
2026-04-20 12:30 13.60239 119.77233 29696 ft 453 kts 52°
2026-04-20 12:30 13.62136 119.79754 29157 ft 449 kts 52°
2026-04-20 12:31 13.64052 119.82301 28589 ft 445 kts 52°
2026-04-20 12:31 13.65933 119.84802 28033 ft 442 kts 52°
2026-04-20 12:31 13.67809 119.87296 27423 ft 440 kts 52°
2026-04-20 12:31 13.69674 119.89777 26820 ft 437 kts 52°
2026-04-20 12:32 13.71543 119.92264 26306 ft 432 kts 52°
2026-04-20 12:32 13.73360 119.94682 25823 ft 428 kts 52°
2026-04-20 12:32 13.75176 119.97098 25350 ft 423 kts 51°
2026-04-20 12:32 13.76944 119.99452 24887 ft 418 kts 51°
2026-04-20 12:33 13.78736 120.01838 24426 ft 414 kts 51°
2026-04-20 12:33 13.80442 120.04111 24249 ft 401 kts 51°
2026-04-20 12:33 13.82123 120.06351 24127 ft 388 kts 51°
2026-04-20 12:33 13.83774 120.08531 23977 ft 376 kts 48°
2026-04-20 12:34 13.85614 120.10388 23808 ft 364 kts 37°
2026-04-20 12:34 13.87709 120.11789 23411 ft 360 kts 26°
2026-04-20 12:34 13.89977 120.12869 22960 ft 357 kts 23°
2026-04-20 12:34 13.92221 120.13863 22534 ft 355 kts 22°
2026-04-20 12:35 13.94525 120.14877 22106 ft 352 kts 22°
2026-04-20 12:35 13.96777 120.15875 21690 ft 349 kts 22°
2026-04-20 12:35 13.98945 120.16843 21290 ft 347 kts 22°
2026-04-20 12:35 14.01169 120.17839 20877 ft 344 kts 22°
2026-04-20 12:36 14.03342 120.18816 20470 ft 341 kts 22°
2026-04-20 12:36 14.05501 120.19788 20070 ft 338 kts 22°
2026-04-20 12:36 14.07655 120.20757 19663 ft 336 kts 22°
2026-04-20 12:36 14.09729 120.21693 19273 ft 334 kts 22°
2026-04-20 12:37 14.11881 120.22664 18867 ft 331 kts 22°
2026-04-20 12:37 14.14097 120.23663 18446 ft 329 kts 22°
2026-04-20 12:37 14.16255 120.24638 18036 ft 327 kts 22°
2026-04-20 12:37 14.18242 120.25534 17655 ft 325 kts 22°
2026-04-20 12:38 14.20211 120.26424 17276 ft 323 kts 22°
2026-04-20 12:38 14.24018 120.28142 16542 ft 319 kts 22°
2026-04-20 12:38 14.26201 120.29129 16124 ft 317 kts 22°
2026-04-20 12:39 14.30247 120.30957 15342 ft 314 kts 21°
2026-04-20 12:39 14.32120 120.31804 14979 ft 312 kts 21°
2026-04-20 12:39 14.34135 120.32714 14592 ft 310 kts 21°
2026-04-20 12:40 14.36239 120.33665 14186 ft 308 kts 21°
2026-04-20 12:40 14.38284 120.34591 13789 ft 307 kts 21°
2026-04-20 12:40 14.40236 120.35474 13412 ft 305 kts 21°
2026-04-20 12:40 14.42195 120.36364 13030 ft 304 kts 23°
2026-04-20 12:41 14.43973 120.37547 12628 ft 306 kts 40°
2026-04-20 12:41 14.45314 120.39222 12249 ft 308 kts 56°
2026-04-20 12:41 14.46425 120.41161 11872 ft 307 kts 58°
2026-04-20 12:41 14.47458 120.43066 11509 ft 305 kts 59°
2026-04-20 12:42 14.48488 120.44962 11155 ft 303 kts 58°
2026-04-20 12:42 14.49526 120.46854 10804 ft 301 kts 58°
2026-04-20 12:42 14.50577 120.48754 10453 ft 299 kts 58°
2026-04-20 12:42 14.51631 120.50649 10099 ft 297 kts 58°
2026-04-20 12:43 14.52665 120.52505 9750 ft 295 kts 58°
2026-04-20 12:43 14.53690 120.54340 9403 ft 293 kts 58°
2026-04-20 12:43 14.54700 120.56149 9054 ft 291 kts 58°
2026-04-20 12:43 14.55713 120.57962 8709 ft 289 kts 58°
2026-04-20 12:44 14.56725 120.59775 8358 ft 287 kts 58°
2026-04-20 12:44 14.57724 120.61565 8011 ft 285 kts 58°
2026-04-20 12:44 14.58713 120.63338 7487 ft 286 kts 58°
2026-04-20 12:44 14.59709 120.65120 6885 ft 286 kts 58°
2026-04-20 12:45 14.60424 120.66887 6683 ft 277 kts 81°
2026-04-20 12:45 14.60168 120.68889 6533 ft 280 kts 115°
2026-04-20 12:45 14.58934 120.70375 6310 ft 271 kts 149°
2026-04-20 12:45 14.57280 120.71310 6097 ft 262 kts 155°
2026-04-20 12:46 14.55669 120.72152 5927 ft 253 kts 154°
2026-04-20 12:46 14.54130 120.72990 5748 ft 251 kts 153°
2026-04-20 12:46 14.52575 120.73869 5497 ft 251 kts 153°
2026-04-20 12:46 14.51047 120.74746 5305 ft 250 kts 152°
2026-04-20 12:47 14.49542 120.75627 5026 ft 249 kts 152°
2026-04-20 12:47 14.48039 120.76515 4723 ft 245 kts 152°
2026-04-20 12:47 14.46555 120.77395 4417 ft 242 kts 151°
2026-04-20 12:47 14.45086 120.78264 4112 ft 239 kts 151°
2026-04-20 12:48 14.43667 120.79108 3809 ft 237 kts 152°
2026-04-20 12:48 14.42230 120.79961 3506 ft 234 kts 149°
2026-04-20 12:48 14.41085 120.81171 3160 ft 235 kts 117°
2026-04-20 12:48 14.40757 120.82757 2997 ft 228 kts 86°
2026-04-20 12:49 14.41129 120.84348 3042 ft 224 kts 69°
2026-04-20 12:49 14.41806 120.85739 3050 ft 205 kts 62°
2026-04-20 12:49 14.42508 120.86953 2884 ft 188 kts 60°
2026-04-20 12:49 14.43150 120.88052 2719 ft 170 kts 62°
2026-04-20 12:50 14.43746 120.89104 2467 ft 165 kts 62°
2026-04-20 12:50 14.44322 120.90142 2249 ft 165 kts 62°
2026-04-20 12:50 14.44890 120.91172 2030 ft 161 kts 63°
2026-04-20 12:50 14.45444 120.92176 1807 ft 161 kts 62°
2026-04-20 12:51 14.46008 120.93198 1596 ft 161 kts 62°
2026-04-20 12:51 14.46568 120.94209 1381 ft 163 kts 62°
2026-04-20 12:51 14.47133 120.95230 1174 ft 159 kts 62°
2026-04-20 12:51 14.47682 120.96220 952 ft 158 kts 62°
2026-04-20 12:52 14.48230 120.97208 740 ft 158 kts 62°
2026-04-20 12:52 14.48788 120.98215 536 ft 157 kts 62°
2026-04-20 12:52 14.49335 120.99201 313 ft 159 kts 62°
2026-04-20 12:52 14.49887 121.00189 129 ft 157 kts 62°
2026-04-20 12:53 14.50407 121.01110 91 ft 136 kts 60°
2026-04-20 12:53 14.50955 121.01987 408 ft 153 kts 59°
2026-04-20 12:53 14.51531 121.02947 993 ft 159 kts 63°
2026-04-20 12:53 14.52060 121.03964 1700 ft 161 kts 64°
2026-04-20 12:54 14.52583 121.04978 2155 ft 163 kts 64°
2026-04-20 12:54 14.53143 121.06048 2412 ft 174 kts 64°
2026-04-20 12:54 14.53649 121.07264 2620 ft 190 kts 84°
2026-04-20 12:54 14.53417 121.08633 2897 ft 200 kts 122°
2026-04-20 12:55 14.52426 121.09705 3202 ft 212 kts 144°
2026-04-20 12:55 14.51185 121.10631 3492 ft 229 kts 147°
2026-04-20 12:55 14.49795 121.11607 3791 ft 246 kts 148°
2026-04-20 12:55 14.48341 121.12611 3986 ft 246 kts 148°
2026-04-20 12:56 14.46918 121.13596 3989 ft 246 kts 150°
2026-04-20 12:56 14.45343 121.14217 3981 ft 242 kts 177°
2026-04-20 12:56 14.43715 121.13933 3988 ft 242 kts 207°
2026-04-20 12:56 14.42428 121.12814 3999 ft 244 kts 231°
2026-04-20 12:57 14.41455 121.11354 3998 ft 243 kts 237°
2026-04-20 12:57 14.40567 121.09866 3996 ft 243 kts 238°
2026-04-20 12:57 14.39761 121.08472 3993 ft 246 kts 237°
2026-04-20 12:57 14.38831 121.06853 3990 ft 245 kts 237°
2026-04-20 12:58 14.37963 121.05341 3990 ft 246 kts 237°
2026-04-20 12:58 14.37081 121.03792 3993 ft 248 kts 238°
2026-04-20 12:58 14.36204 121.02245 3994 ft 247 kts 238°
2026-04-20 12:58 14.35344 121.00731 3993 ft 249 kts 238°
2026-04-20 12:59 14.34457 120.99178 3993 ft 246 kts 238°
2026-04-20 12:59 14.33636 120.97747 3992 ft 246 kts 237°
2026-04-20 12:59 14.32722 120.96151 3995 ft 247 kts 237°
2026-04-20 12:59 14.31841 120.94623 3993 ft 245 kts 237°
2026-04-20 13:00 14.30986 120.93147 3994 ft 244 kts 238°
2026-04-20 13:00 14.30097 120.91615 3993 ft 246 kts 238°
2026-04-20 13:00 14.29270 120.90045 3985 ft 247 kts 250°
2026-04-20 13:00 14.29209 120.88281 3978 ft 253 kts 287°
2026-04-20 13:01 14.30110 120.86792 3992 ft 256 kts 317°
2026-04-20 13:01 14.31605 120.85796 4005 ft 257 kts 332°
2026-04-20 13:01 14.33188 120.85003 4000 ft 255 kts 333°
2026-04-20 13:01 14.34789 120.84186 3989 ft 249 kts 333°
2026-04-20 13:02 14.36288 120.83390 3938 ft 236 kts 331°
2026-04-20 13:02 14.37713 120.82707 3800 ft 224 kts 344°
2026-04-20 13:02 14.39241 120.82742 3371 ft 215 kts 21°
2026-04-20 13:02 14.40347 120.83488 3167 ft 193 kts 47°
2026-04-20 13:03 14.41092 120.84438 3115 ft 172 kts 58°
2026-04-20 13:03 14.41510 120.85114 3132 ft 163 kts 61°
2026-04-20 13:03 14.41827 120.85665 3124 ft 159 kts 62°
2026-04-20 13:04 14.42365 120.86643 3024 ft 155 kts 57°
2026-04-20 13:04 14.42587 120.87046 2929 ft 153 kts 57°
2026-04-20 13:05 14.43005 120.87804 2757 ft 151 kts 57°
2026-04-20 13:05 14.43329 120.88391 2626 ft 150 kts 57°
2026-04-20 13:05 14.43919 120.89455 2391 ft 149 kts 57°
2026-04-20 13:05 14.44497 120.90498 2164 ft 148 kts 57°
2026-04-20 13:06 14.45105 120.91593 1930 ft 148 kts 57°
2026-04-20 13:06 14.45331 120.92001 1844 ft 147 kts 57°
2026-04-20 13:07 14.45813 120.92870 1661 ft 147 kts 57°
2026-04-20 13:07 14.46315 120.93774 1472 ft 146 kts 57°
2026-04-20 13:07 14.46819 120.94682 1281 ft 146 kts 57°
2026-04-20 13:08 14.47321 120.95586 1090 ft 145 kts 57°
2026-04-20 13:08 14.47561 120.96018 998 ft 145 kts 57°
2026-04-20 13:08 14.47926 120.96668 853 ft 148 kts 63°
2026-04-20 13:08 14.48434 120.97581 665 ft 148 kts 62°
2026-04-20 13:09 14.48956 120.98519 462 ft 148 kts 62°
2026-04-20 13:09 14.49465 120.99436 265 ft 147 kts 62°
2026-04-20 13:09 14.49975 121.00345 90 ft 144 kts 61°
2026-04-20 13:09 14.50417 121.01144 84 ft 106 kts 61°
2026-04-20 13:10 14.50693 121.01652 84 ft 57 kts 61°
2026-04-20 13:10 14.50789 121.01825 84 ft 32 kts 60°
2026-04-20 13:10 14.50894 121.02003 84 ft 10 kts 41°
2026-04-20 13:10 14.50954 121.02003 84 ft 8 kts 321°
2026-04-20 13:11 14.50996 121.01960 84 ft 8 kts 314°
2026-04-20 13:11 14.51040 121.01916 84 ft 9 kts 315°
2026-04-20 13:11 14.51086 121.01868 84 ft 9 kts 315°
2026-04-20 13:11 14.51133 121.01819 84 ft 9 kts 314°
2026-04-20 13:12 14.51183 121.01767 84 ft 10 kts 314°
2026-04-20 13:12 14.51235 121.01714 84 ft 10 kts 315°
2026-04-20 13:12 14.51288 121.01659 84 ft 10 kts 315°
2026-04-20 13:12 14.51342 121.01603 84 ft 11 kts 315°
2026-04-20 13:13 14.51371 121.01577 84 ft 7 kts 331°
2026-04-20 13:13 14.51437 121.01590 84 ft 7 kts
2026-04-20 13:13 14.51479 121.01566 84 ft 3 kts 313°
2026-04-20 13:13 14.51494 121.01553 84 ft 2 kts 341°
2026-04-20 13:14 14.51506 121.01555 84 ft 2 kts 26°
2026-04-20 13:14 14.51529 121.01576 84 ft 3 kts 45°
2026-04-20 13:14 14.51549 121.01595 84 ft 4 kts 44°
2026-04-20 13:14 14.51566 121.01613 84 ft 1 kts 44°
2026-04-20 13:15 14.51566 121.01614 84 ft 0 kts 44°